Lapse_Rate
4.0 4.3 4.8 4.5 4.4 5.1 3.8 3.7 4.3 4.2 2.7 3.5 3.6 3.2 3.1 2.3 1.9 1.2 1.8 2.5 3.1 3.6 4.0 4.5 3.4 3.2 3.1 4.1 4.0 4.1 4.2 4.0 4.1 4.0 3.5 3.6 4.4 4.3 5.1 6.3 6.3 6.2 6.8
4.3 4.1 4.2 4.7 4.3 4.4 5.0 3.5 3.3 4.5 3.3 3.8 3.5 3.2 3.1 3.1 2.2 1.8 1.8 3.2 2.8 3.5 3.9 4.2 4.5 4.5 3.5 3.5 3.7 4.1 4.1 3.7 3.8 4.0 3.8 4.3 5.0 4.9 4.5 4.3 5.2 7.0 6.9
4.3 4.2 4.2 4.5 4.4 3.9 3.9 4.0 3.1 4.2 3.8 4.1 3.8 3.4 2.7 2.6 2.5 3.0 2.2 2.3 2.4 2.9 3.2 3.7 3.6 4.0 4.1 3.5 4.7 4.4 3.9 4.7 4.2 4.1 4.4 4.0 3.9 3.9 4.1 3.5 3.8 4.0 6.2
4.1 4.2 4.2 4.4 4.0 3.5 3.3 3.5 3.8 3.6 4.4 3.7 3.7 3.3 3.1 2.8 2.6 2.6 1.3 1.5 2.3 3.4 3.8 4.0 4.3 4.6 4.0 4.6 4.9 4.9 3.8 4.2 4.1 4.1 3.8 4.0 4.0 4.6 3.7 4.0 4.0 3.9 4.3
4.2 4.2 4.2 4.0 4.4 4.1 3.9 3.4 3.5 4.1 3.9 3.9 3.4 3.6 2.8 3.0 2.7 1.9 1.7 1.7 1.9 2.9 3.7 4.1 5.0 5.2 5.2 5.0 5.0 4.0 4.4 4.3 3.8 3.9 4.0 3.9 5.0 4.5 4.1 3.8 3.9 3.8 3.8
4.2 4.0 4.3 4.9 4.7 4.5 4.0 3.8 4.0 4.2 3.9 4.1 3.4 3.0 2.7 3.4 2.5 1.3 2.4 3.7 2.3 2.8 3.3 4.1 5.5 5.8 5.4 5.1 4.0 2.9 2.9 4.5 4.6 4.1 4.0 4.6 4.9 4.3 3.5 4.2 3.9 3.8 4.3
4.2 4.1 4.0 4.6 4.4 4.3 4.4 4.4 4.4 5.0 4.9 4.2 3.9 4.0 3.2 3.1 0.9 1.1 2.7 3.0 2.9 3.1 3.4 4.2 5.0 6.4 5.8 4.6 3.0 3.1 3.5 3.7 3.9 5.3 4.4 4.2 3.6 3.5 4.5 4.6 3.8 3.9 4.0
3.5 3.5 3.7 3.3 3.6 4.0 4.3 4.2 5.1 5.0 5.5 4.4 4.5 3.5 4.1 2.9 0.3 0.7 3.1 3.9 3.7 3.7 3.9 4.0 3.9 4.2 4.5 4.0 4.5 3.9 3.8 4.3 3.3 3.8 2.9 4.4 3.3 3.9 3.9 4.4 4.2 3.8 2.9
3.8 3.2 3.4 3.2 3.2 3.7 3.7 4.4 4.6 5.4 4.9 4.6 4.1 4.2 4.1 2.0 -0.3 0.1 2.1 3.7 4.5 4.6 4.0 4.2 3.5 4.1 4.0 1.9 4.4 4.2 4.4 4.0 4.7 4.7 4.1 4.2 4.2 4.4 4.6 3.3 3.6 3.7 2.9
4.2 3.5 3.2 3.5 3.5 3.1 3.8 4.1 4.5 4.9 3.7 3.4 3.2 3.1 1.9 2.2 -0.5 -0.1 2.0 4.2 5.1 4.6 3.9 4.0 3.7 4.1 2.9 2.0 3.2 3.2 4.1 3.4 3.7 3.3 3.5 3.6 4.0 4.4 5.2 3.1 4.7 3.7 3.2
4.0 3.4 3.1 3.3 3.2 3.1 3.7 4.1 3.2 2.8 2.6 2.3 2.4 2.3 2.5 2.7 1.3 -0.1 0.2 4.7 5.6 5.4 5.0 4.4 3.8 2.2 0.8 0.3 1.1 2.9 2.9 2.4 3.0 2.5 2.9 3.1 3.5 3.6 3.8 4.6 4.0 3.1 3.2
2.5 3.4 2.2 3.2 3.5 3.0 2.8 2.5 2.1 1.9 2.1 2.8 2.8 2.7 3.1 3.1 2.2 -0.4 0.4 1.4 4.4 5.7 4.2 4.0 3.7 1.8 0.7 0.3 -0.2 1.1 1.1 2.0 2.0 2.3 2.9 3.1 3.5 4.2 4.9 3.9 4.3 4.3 4.4
3.0 2.6 2.9 2.7 2.6 2.5 2.6 1.5 0.7 2.7 2.8 3.5 3.5 3.5 3.8 3.7 3.3 0.6 -0.3 0.3 1.3 4.0 3.8 1.4 0.1 0.4 -0.5 -1.1 -0.1 0.8 0.5 0.8 1.6 2.1 2.6 3.2 4.0 5.9 4.8 4.3 4.9 5.5 5.2
2.9 2.1 2.0 2.1 2.1 2.4 2.3 1.3 2.2 2.8 3.1 3.4 3.5 3.9 4.0 4.3 2.9 1.0 0.4 0.4 0.4 1.6 1.0 0.3 0.2 0.3 -0.1 0.6 0.2 -0.5 -0.3 0.6 1.7 2.9 4.2 3.4 3.7 4.1 4.1 3.7 4.2 3.9 3.7
2.0 2.2 2.5 1.7 0.2 -1.4 -3.6 -0.8 2.6 -0.1 2.9 4.5 4.3 4.1 4.0 3.9 3.1 1.8 1.7 1.4 1.8 2.4 1.1 1.9 1.7 1.5 0.9 0.7 1.1 1.5 0.2 1.4 1.9 3.3 5.3 4.1 4.1 3.9 3.9 4.0 3.8 3.6 3.5
1.6 0.9 0.7 2.0 1.3 0.5 0.0 -1.0 -5.5 -5.3 -4.8 -3.4 0.4 3.6 1.0 0.4 -0.7 -2.0 -1.6 -0.8 0.3 -0.0 2.2 2.6 1.6 1.6 1.7 1.8 1.5 1.6 2.7 3.7 3.7 4.6 4.5 3.8 4.2 3.8 3.9 3.6 3.5 3.4 2.9
0.7 0.7 1.7 3.0 3.1 2.5 3.0 2.3 1.1 -1.8 -4.4 -4.9 -4.3 -1.5 -0.1 -3.4 -3.4 -3.7 -4.0 -2.7 -1.1 0.2 2.9 3.2 3.1 3.0 3.1 2.6 2.8 3.8 4.0 2.8 4.1 4.6 4.1 3.7 3.8 4.0 4.1 3.8 3.6 3.3 3.2
0.8 -1.1 1.8 3.1 3.5 3.9 3.7 2.7 2.1 1.9 2.2 0.8 -3.6 -2.8 -4.2 -4.3 -4.4 -4.4 -3.7 -0.5 1.7 1.9 2.4 2.9 3.1 3.8 3.7 3.3 3.0 3.1 2.8 2.8 3.0 3.3 3.8 3.7 3.5 3.9 4.2 4.1 3.5 3.1 3.1
3.7 3.8 4.1 3.7 3.7 3.7 4.0 4.3 2.8 2.3 1.8 0.3 -2.5 -3.0 -5.0 -5.0 -4.4 -4.0 -3.6 1.4 2.4 2.5 2.5 3.2 4.1 2.7 2.0 2.0 1.9 2.0 2.6 2.9 3.0 3.6 3.9 3.7 3.7 3.8 4.3 4.0 3.3 3.6 3.4
3.2 4.1 4.4 4.9 5.0 5.5 5.3 4.9 4.3 3.5 1.5 -0.2 -1.1 -1.3 -3.5 -2.7 -1.6 -1.3 -0.4 1.2 2.5 3.2 2.8 3.4 2.9 2.0 1.9 2.0 2.2 2.8 3.8 4.2 4.2 3.7 3.3 3.5 3.6 4.0 4.3 3.9 3.4 3.4 3.2
2.7 3.4 4.4 4.7 5.0 5.0 4.6 5.3 6.0 4.3 2.3 1.3 0.9 -0.4 -2.1 -0.3 0.1 0.4 0.7 1.6 2.5 3.3 2.9 2.4 2.2 2.5 2.5 2.7 3.0 4.1 4.4 4.5 3.8 3.5 3.3 3.5 3.7 4.2 3.6 3.5 3.6 3.6 3.1
4.0 3.8 4.5 4.1 3.7 4.1 4.7 4.6 3.7 4.1 3.4 3.0 2.2 0.0 -2.6 0.9 2.2 1.9 2.0 2.5 3.5 4.5 4.3 2.8 2.5 3.1 2.9 3.1 3.0 3.7 4.6 4.4 3.3 3.0 2.9 3.4 3.6 3.7 3.9 4.0 3.7 3.5 3.4
3.5 4.9 3.4 3.2 4.3 3.6 3.6 2.7 1.8 3.3 2.7 2.1 0.7 0.2 0.4 2.0 3.3 3.3 3.6 3.2 3.7 4.2 4.0 3.7 2.8 3.4 2.3 2.9 3.8 3.5 3.9 3.5 2.7 2.2 2.4 2.7 3.0 3.4 3.4 3.9 3.7 3.6 3.5
3.5 3.5 2.6 1.7 2.2 3.4 2.7 2.4 1.8 3.2 3.6 3.5 3.0 2.5 1.9 2.5 4.1 3.4 3.4 3.0 3.6 4.1 4.1 4.2 3.8 3.2 3.2 3.1 3.3 2.9 3.5 3.7 3.6 3.1 2.8 2.9 2.8 2.8 3.0 3.3 3.7 4.0 3.9
4.3 3.7 3.5 3.1 2.9 2.8 3.2 2.8 3.1 2.9 4.4 3.9 3.8 3.4 3.2 3.4 3.4 3.2 4.1 3.6 2.7 3.2 4.2 4.1 2.9 3.4 3.4 1.9 2.1 2.3 4.0 5.1 4.2 4.7 3.3 2.6 2.8 3.3 3.4 3.8 4.3 3.6 4.4
3.1 4.2 3.4 3.0 3.4 4.8 3.8 3.8 4.0 4.3 4.6 4.4 4.4 3.4 3.3 3.4 2.8 2.5 2.9 2.8 2.6 3.5 3.7 2.7 3.2 4.0 4.1 2.5 2.5 2.9 4.1 4.2 3.6 3.6 2.6 1.2 2.0 2.7 3.1 4.6 4.9 4.2 4.5
Wind_Speed
19 18 17 15 14 13 9 9 11 7 8 12 13 13 13 11 10 8 7 7 7 7 5 6 7 6 4 3 2 1 2 3 3 3 3 4 2 4 6 12 14 14 17
20 18 18 16 15 14 15 11 10 12 10 14 14 13 13 12 9 11 10 7 8 7 7 6 6 4 6 6 4 4 3 3 3 4 2 2 3 3 5 4 9 13 15
20 18 17 17 16 17 17 15 11 13 11 13 15 16 14 13 12 12 10 7 6 7 7 7 7 7 6 4 5 5 3 1 1 2 3 3 4 3 4 3 4 5 8
20 19 19 19 20 18 17 17 14 13 14 13 15 16 14 13 12 10 8 8 7 6 7 7 7 7 6 6 5 6 4 3 3 3 3 3 2 3 1 2 3 2 4
21 20 20 19 18 17 16 15 16 13 13 12 11 11 10 10 8 12 13 12 9 7 7 6 7 7 9 8 4 6 5 2 2 4 4 3 4 2 2 2 3 2 3
21 22 19 18 17 17 16 15 14 16 11 12 11 10 10 9 15 15 14 10 7 7 6 6 6 10 8 5 4 9 7 2 5 3 3 4 3 3 1 2 2 2 3
21 20 20 18 17 18 15 14 13 15 12 13 11 12 12 12 12 10 11 6 7 7 7 6 6 4 6 1 5 6 7 11 15 10 5 5 3 4 3 3 4 3 4
20 20 20 19 20 17 17 15 15 12 15 12 13 11 11 8 14 12 13 7 6 7 7 7 6 7 5 6 6 7 8 10 8 8 6 9 7 7 6 5 5 4 3
20 20 21 20 19 18 18 17 13 13 10 10 11 11 11 7 13 13 9 6 5 5 5 6 7 7 9 13 7 6 6 5 8 15 18 18 18 16 12 1 4 4 4
22 21 18 19 18 18 17 16 12 10 8 7 8 9 11 9 12 12 11 5 6 5 6 7 12 9 10 10 6 5 6 5 3 4 4 4 7 9 16 8 6 4 3
16 12 15 16 16 15 15 12 9 10 10 9 9 6 8 8 10 14 13 7 7 6 6 6 7 12 11 9 9 6 6 4 2 2 4 4 5 5 5 4 5 4 4
11 14 11 13 12 12 14 10 11 11 11 9 9 6 5 6 9 12 15 14 9 6 5 4 5 10 11 9 8 8 8 5 2 3 3 4 4 4 3 4 7 8 9
13 12 12 11 12 12 13 12 8 10 8 8 7 6 5 5 5 12 15 15 7 4 3 5 5 5 7 6 7 8 7 3 3 2 4 4 3 3 3 4 5 7 6
14 13 11 13 12 11 8 7 9 7 7 7 6 6 4 4 5 4 4 4 6 5 6 4 5 4 3 2 4 4 4 4 4 4 4 3 2 2 2 1 2 2 2
15 13 12 10 11 10 8 4 5 6 5 8 5 5 6 4 5 9 8 6 5 5 5 2 2 2 2 3 3 4 4 4 5 4 3 2 2 2 2 2 2 3 2
13 9 9 9 8 9 8 8 17 11 11 12 6 5 2 3 13 12 12 13 12 11 2 4 4 4 5 5 5 5 4 7 4 2 3 3 2 2 2 3 2 2 3
13 11 10 9 9 8 8 8 7 7 14 13 12 11 8 10 12 12 11 10 7 8 3 4 4 5 4 4 4 3 3 4 4 2 1 1 1 2 3 3 3 3 4
12 11 9 8 9 8 9 9 7 6 3 4 10 6 9 10 9 11 11 8 2 1 3 4 3 1 2 4 4 4 4 4 3 3 2 2 2 1 2 3 4 3 4
10 7 8 7 9 9 9 8 10 10 8 5 3 5 5 8 7 8 6 2 4 4 3 1 3 5 5 5 5 4 3 3 3 1 2 2 3 1 2 4 5 7 6
5 8 10 8 7 10 10 9 8 9 7 7 6 5 5 4 4 5 5 4 3 1 3 5 4 4 5 5 4 3 2 1 1 2 3 2 2 1 3 4 5 4 5
4 3 8 5 7 5 5 7 10 10 9 7 7 8 11 5 5 5 5 5 5 3 5 5 5 4 4 4 4 3 1 2 3 2 3 2 3 3 4 3 4 5 5
4 5 4 4 4 5 5 4 9 11 10 8 6 8 16 4 6 6 6 5 4 4 6 6 5 4 4 5 5 4 1 2 2 3 4 3 3 4 3 3 5 5 4
4 3 4 2 3 5 5 5 5 7 7 6 7 7 6 6 5 6 6 6 6 6 5 5 5 4 4 4 6 4 3 3 3 4 5 4 4 4 4 4 5 4 4
4 6 7 7 6 2 6 8 5 7 7 8 8 8 8 6 4 6 6 6 5 5 5 6 6 9 7 5 8 10 11 10 8 6 5 3 3 5 5 5 3 5 5
5 4 6 5 5 4 4 4 5 5 5 6 6 7 6 5 5 5 6 7 6 7 7 6 4 9 10 12 12 14 14 11 8 5 3 2 3 6 6 4 3 5 5
6 4 5 5 4 2 4 4 5 2 4 5 6 6 6 6 5 5 5 6 6 5 6 5 7 12 16 16 19 19 16 13 9 6 3 0 2 4 5 5 7 5 6
Wind_Direction
186 189 190 193 192 198 194 197 188 184 163 172 178 177 183 179 183 175 186 186 201 209 208 196 215 192 176 186 186 135 161 155 192 296 240 221 205 222 248 241 252 253 265
186 188 194 192 190 196 207 199 187 194 175 179 180 181 187 189 180 183 192 195 204 206 209 204 217 203 189 195 193 207 212 194 174 236 270 293 266 288 245 247 268 268 263
185 187 191 193 194 199 205 204 189 194 189 183 182 187 188 189 188 194 191 194 200 208 206 211 215 214 213 206 213 197 208 232 208 188 260 253 248 241 275 297 276 273 287
184 188 192 195 200 202 202 204 201 194 192 183 189 190 191 187 184 179 177 184 195 207 213 213 215 213 224 212 197 221 188 224 244 247 254 268 248 291 177 198 310 288 283
185 190 196 198 201 203 205 203 203 201 197 189 182 188 183 179 176 184 191 192 184 196 212 215 215 216 216 222 183 228 210 238 311 299 270 268 278 260 219 224 228 264 259
186 193 194 196 198 202 202 201 197 203 195 189 185 173 175 189 191 189 189 192 178 191 206 217 215 219 231 258 267 90 107 66 267 237 250 251 263 242 268 305 285 323 307
192 189 192 194 197 200 196 194 193 196 191 190 183 184 186 191 187 176 173 172 169 190 204 208 222 208 189 210 163 197 145 204 227 242 238 241 249 229 211 256 256 219 237
191 192 190 190 197 195 195 192 195 188 197 185 192 182 182 184 178 168 177 163 183 197 201 200 196 202 174 162 177 218 204 229 220 227 220 253 237 247 211 228 228 240 279
190 194 192 189 191 193 195 195 190 192 189 181 180 174 175 154 157 158 160 181 199 208 207 191 192 207 214 204 201 224 240 243 230 235 229 239 257 258 245 120 270 253 264
195 196 189 188 187 189 186 185 184 174 163 152 148 163 162 157 167 172 172 168 191 208 215 208 216 218 217 214 204 215 247 252 243 305 317 292 251 256 258 209 255 247 251
189 169 171 178 181 174 171 173 139 135 136 142 142 142 153 152 176 180 184 192 207 211 216 216 224 221 226 219 200 198 214 153 243 276 287 294 288 281 271 267 219 189 219
142 157 141 155 155 152 145 138 148 146 137 138 139 142 154 182 167 189 196 204 200 201 203 216 223 212 219 223 186 197 172 165 230 273 292 287 284 288 271 240 250 243 236
133 129 129 118 122 131 130 134 134 127 142 143 150 151 170 173 167 185 199 203 165 171 146 170 183 212 183 185 197 207 186 188 212 230 248 261 236 258 284 309 327 334 318
117 109 110 109 108 109 113 120 125 134 130 142 151 158 163 165 156 161 169 167 184 180 146 158 208 191 158 174 178 202 197 201 206 229 249 245 284 329 329 302 295 290 311
106 106 103 99 99 87 64 55 120 97 136 153 162 151 164 171 180 165 161 169 175 190 134 116 167 200 202 233 239 205 209 217 218 230 245 273 271 316 300 292 271 301 299
107 111 118 113 110 111 110 77 46 56 63 78 105 126 59 270 160 154 157 159 168 164 135 183 203 204 214 222 214 214 206 208 216 216 202 207 257 275 277 303 288 279 281
118 124 120 126 124 127 117 122 117 49 68 60 67 117 126 149 133 132 121 118 136 138 179 203 204 208 220 205 198 188 205 205 172 212 33 354 286 303 333 303 299 297 294
123 144 127 140 132 138 138 133 124 121 134 87 37 63 103 112 116 123 129 107 96 273 205 203 211 160 107 107 109 115 99 90 98 133 185 253 300 314 296 307 310 284 291
129 146 147 147 151 150 149 165 144 153 143 137 117 61 74 97 110 117 125 168 186 199 223 208 124 126 111 101 100 102 113 128 156 166 308 349 308 256 306 307 304 297 305
99 183 146 165 162 165 169 160 158 147 145 159 158 170 155 152 163 176 192 188 200 192 117 124 116 101 106 111 108 104 69 30 324 275 256 243 280 344 307 308 302 311 307
108 69 115 114 150 166 168 150 166 153 166 170 175 168 172 167 169 175 180 188 199 179 145 121 121 126 141 135 122 111 66 300 298 226 139 83 32 350 325 302 312 318 304
105 127 117 154 171 161 179 153 153 165 164 164 157 163 164 199 184 179 181 187 187 176 146 132 124 115 128 126 125 125 170 315 356 131 93 60 27 345 315 322 329 318 311
35 76 125 114 116 93 65 71 93 142 136 140 135 147 175 209 205 186 185 181 161 152 138 124 127 121 126 131 134 136 110 106 127 109 82 50 16 344 324 326 322 313 329
102 96 83 62 43 100 120 102 87 95 126 142 146 170 178 208 199 177 165 156 141 140 149 143 129 132 128 116 101 100 110 121 106 92 97 66 342 335 330 322 312 325 328
86 74 117 135 138 120 88 106 119 138 171 163 151 179 187 183 165 158 171 158 155 161 166 155 145 149 143 138 138 133 127 117 109 94 71 46 324 323 309 288 328 327 325
131 157 135 118 81 123 142 143 144 188 217 177 164 167 173 177 163 162 175 169 163 173 158 161 170 162 154 151 152 152 148 145 140 137 131 44 319 303 306 302 336 329 318